Location: Rometta
(44.2000°N, 10.0500°E)
Time: 22:13:45
(UTC+00:00)

Cosmos 1428 Rocket - Pass Details

Date: 20 January 2021
Orbit: 947 x 989 km, 82.9° (Epoch: 04 March)

Event Time Altitude Azimuth Distance (km) Brightness Sun altitude
Rises 18:26:02 0° 181° (S) 3,665 7.6 -23.5°
Reaches altitude 10° 18:28:31 10° 180° (S) 2,726 6.9 -23.9°
Maximum altitude 18:34:46 78° 95° (E) 1,012 4.4 -25.0°
Drops below altitude 10° 18:41:06 10° 11° (N) 2,759 6.7 -26.2°
Sets 18:43:38 0° 10° (N) 3,712 7.4 -26.6°
